Time,TemperatureF,DewpointF,PressureIn,WindDirection,WindDirectionDegrees,WindSpeedMPH,WindSpeedGustMPH,Humidity,HourlyPrecipIn,Conditions,Clouds,dailyrainin,SoftwareType,DateUTC
2013-01-31 00:05:00,39.0,38.0,30.30,ESE,115,0.0,0.0,97,0.00,,,0.00,weatherlink.com 1.10,2013-01-31 08:05:00,
2013-01-31 00:20:00,38.5,38.0,30.30,NNE,19,0.0,0.0,96,0.00,,,0.00,weatherlink.com 1.10,2013-01-31 08:20:00,
2013-01-31 00:35:00,38.3,38.0,30.30,NE,46,0.0,1.0,97,0.00,,,0.00,weatherlink.com 1.10,2013-01-31 08:35:00,
2013-01-31 00:50:00,38.0,37.0,30.30,NE,47,0.0,0.0,97,0.00,,,0.00,weatherlink.com 1.10,2013-01-31 08:50:00,
2013-01-31 01:05:00,38.7,38.0,30.30,NE,47,0.0,0.0,98,0.00,,,0.00,weatherlink.com 1.10,2013-01-31 09:05:00,
2013-01-31 01:20:00,38.6,38.0,30.30,NE,47,0.0,0.0,97,0.00,,,0.00,weatherlink.com 1.10,2013-01-31 09:20:00,
2013-01-31 01:35:00,37.8,37.0,30.30,NE,45,0.0,1.0,98,0.00,,,0.00,weatherlink.com 1.10,2013-01-31 09:35:00,
2013-01-31 01:50:00,37.9,37.0,30.30,NE,45,0.0,0.0,98,0.00,,,0.00,weatherlink.com 1.10,2013-01-31 09:50:00,
2013-01-31 02:05:00,37.5,37.0,30.30,NE,47,0.0,0.0,98,0.00,,,0.00,weatherlink.com 1.10,2013-01-31 10:05:00,
2013-01-31 02:20:00,37.3,37.0,30.30,NE,45,1.0,1.0,98,0.00,,,0.00,weatherlink.com 1.10,2013-01-31 10:20:00,
2013-01-31 02:35:00,37.4,37.0,30.30,NE,46,0.0,1.0,98,0.01,,,0.01,weatherlink.com 1.10,2013-01-31 10:35:00,
2013-01-31 02:50:00,37.0,36.0,30.29,NE,45,0.0,0.0,97,0.01,,,0.01,weatherlink.com 1.10,2013-01-31 10:50:00,
2013-01-31 03:05:00,37.2,37.0,30.29,NE,46,0.0,0.0,98,0.01,,,0.01,weatherlink.com 1.10,2013-01-31 11:05:00,
2013-01-31 03:20:00,36.4,36.0,30.29,NE,46,0.0,0.0,97,0.01,,,0.01,weatherlink.com 1.10,2013-01-31 11:20:00,
2013-01-31 03:35:00,37.0,37.0,30.30,NE,44,0.0,0.0,98,0.00,,,0.01,weatherlink.com 1.10,2013-01-31 11:35:00,
2013-01-31 03:50:00,37.3,37.0,30.30,NE,44,0.0,0.0,98,0.00,,,0.01,weatherlink.com 1.10,2013-01-31 11:50:00,
2013-01-31 04:05:00,36.8,36.0,30.29,NE,44,0.0,0.0,98,0.00,,,0.01,weatherlink.com 1.10,2013-01-31 12:05:00,
2013-01-31 04:20:00,36.4,36.0,30.29,NE,44,0.0,0.0,98,0.00,,,0.01,weatherlink.com 1.10,2013-01-31 12:20:00,
2013-01-31 04:35:00,36.7,36.0,30.29,NE,44,0.0,0.0,98,0.00,,,0.01,weatherlink.com 1.10,2013-01-31 12:35:00,
2013-01-31 04:50:00,36.7,36.0,30.30,NE,44,0.0,0.0,98,0.00,,,0.01,weatherlink.com 1.10,2013-01-31 12:50:00,
2013-01-31 05:05:00,36.2,36.0,30.30,NE,42,0.0,1.0,98,0.00,,,0.01,weatherlink.com 1.10,2013-01-31 13:05:00,
2013-01-31 05:20:00,36.7,36.0,30.30,NE,44,0.0,0.0,98,0.00,,,0.01,weatherlink.com 1.10,2013-01-31 13:20:00,
2013-01-31 05:35:00,36.7,36.0,30.30,NE,45,0.0,0.0,98,0.00,,,0.01,weatherlink.com 1.10,2013-01-31 13:35:00,
2013-01-31 05:50:00,37.5,37.0,30.30,NE,45,0.0,0.0,99,0.00,,,0.01,weatherlink.com 1.10,2013-01-31 13:50:00,
2013-01-31 06:05:00,38.0,38.0,30.30,SE,139,0.0,0.0,99,0.00,,,0.01,weatherlink.com 1.10,2013-01-31 14:05:00,
2013-01-31 06:20:00,37.3,37.0,30.30,SE,137,0.0,0.0,98,0.00,,,0.01,weatherlink.com 1.10,2013-01-31 14:20:00,
2013-01-31 06:35:00,37.0,37.0,30.31,ESE,108,0.0,0.0,99,0.00,,,0.01,weatherlink.com 1.10,2013-01-31 14:35:00,
2013-01-31 06:50:00,37.1,37.0,30.31,East,82,0.0,2.0,99,0.00,,,0.01,weatherlink.com 1.10,2013-01-31 14:50:00,
2013-01-31 07:06:00,36.0,36.0,30.31,East,90,0.0,0.0,98,0.00,,,0.01,weatherlink.com 1.10,2013-01-31 15:06:00,
2013-01-31 07:20:00,36.0,36.0,30.31,East,90,0.0,0.0,99,0.00,,,0.01,weatherlink.com 1.10,2013-01-31 15:20:00,
2013-01-31 07:35:00,35.8,35.0,30.32,ENE,60,0.0,1.0,98,0.00,,,0.01,weatherlink.com 1.10,2013-01-31 15:35:00,
2013-01-31 07:51:00,36.6,36.0,30.31,ESE,113,0.0,0.0,99,0.00,,,0.01,weatherlink.com 1.10,2013-01-31 15:51:00,
2013-01-31 08:06:00,36.7,37.0,30.32,ESE,113,0.0,0.0,99,0.00,,,0.01,weatherlink.com 1.10,2013-01-31 16:06:00,
2013-01-31 08:21:00,38.2,38.0,30.32,East,100,0.0,0.0,99,0.00,,,0.01,weatherlink.com 1.10,2013-01-31 16:21:00,
2013-01-31 08:36:00,39.5,39.0,30.33,SE,132,0.0,3.0,99,0.00,,,0.01,weatherlink.com 1.10,2013-01-31 16:36:00,
2013-01-31 08:51:00,40.8,41.0,30.33,SE,124,3.0,4.0,100,0.00,,,0.01,weatherlink.com 1.10,2013-01-31 16:51:00,
2013-01-31 09:06:00,42.3,42.0,30.33,SE,140,0.0,3.0,100,0.00,,,0.01,weatherlink.com 1.10,2013-01-31 17:06:00,
2013-01-31 09:21:00,43.8,44.0,30.32,SE,131,2.0,3.0,100,0.00,,,0.01,weatherlink.com 1.10,2013-01-31 17:21:00,
2013-01-31 09:36:00,45.1,45.0,30.32,SE,129,4.0,4.0,100,0.00,,,0.01,weatherlink.com 1.10,2013-01-31 17:36:00,
2013-01-31 09:51:00,46.7,47.0,30.32,SE,146,3.0,4.0,99,0.00,,,0.01,weatherlink.com 1.10,2013-01-31 17:51:00,
2013-01-31 10:06:00,49.0,48.0,30.32,SSE,165,1.0,4.0,97,0.00,,,0.01,weatherlink.com 1.10,2013-01-31 18:06:00,
2013-01-31 10:21:00,51.7,50.0,30.31,West,273,2.0,3.0,93,0.00,,,0.01,weatherlink.com 1.10,2013-01-31 18:21:00,
2013-01-31 10:36:00,52.8,49.0,30.30,West,277,1.0,4.0,88,0.00,,,0.01,weatherlink.com 1.10,2013-01-31 18:36:00,
2013-01-31 10:51:00,54.2,50.0,30.30,West,276,1.0,3.0,85,0.00,,,0.01,weatherlink.com 1.10,2013-01-31 18:51:00,
2013-01-31 11:06:00,55.8,50.0,30.29,SSW,211,1.0,2.0,81,0.00,,,0.01,weatherlink.com 1.10,2013-01-31 19:06:00,
2013-01-31 11:21:00,56.8,50.0,30.28,SSE,162,2.0,3.0,78,0.00,,,0.01,weatherlink.com 1.10,2013-01-31 19:21:00,
2013-01-31 11:36:00,57.1,51.0,30.28,SSE,160,4.0,5.0,80,0.00,,,0.01,weatherlink.com 1.10,2013-01-31 19:36:00,
2013-01-31 11:51:00,60.7,48.0,30.27,ESE,105,0.0,6.0,64,0.00,,,0.01,weatherlink.com 1.10,2013-01-31 19:51:00,
2013-01-31 12:07:00,62.8,46.0,30.26,East,97,0.0,4.0,55,0.00,,,0.01,weatherlink.com 1.10,2013-01-31 20:07:00,
2013-01-31 12:22:00,64.3,47.0,30.25,East,93,0.0,6.0,54,0.00,,,0.01,weatherlink.com 1.10,2013-01-31 20:22:00,
2013-01-31 12:37:00,65.1,46.0,30.25,SSE,160,0.0,2.0,51,0.00,,,0.01,weatherlink.com 1.10,2013-01-31 20:37:00,
2013-01-31 12:52:00,64.4,48.0,30.24,SSE,155,4.0,9.0,56,0.00,,,0.01,weatherlink.com 1.10,2013-01-31 20:52:00,
2013-01-31 13:07:00,64.4,49.0,30.23,SE,138,0.0,7.0,57,0.00,,,0.01,weatherlink.com 1.10,2013-01-31 21:07:00,
2013-01-31 13:22:00,64.8,49.0,30.23,South,183,4.0,7.0,58,0.00,,,0.01,weatherlink.com 1.10,2013-01-31 21:22:00,
2013-01-31 13:37:00,63.3,49.0,30.22,WNW,295,5.0,8.0,61,0.00,,,0.01,weatherlink.com 1.10,2013-01-31 21:37:00,
2013-01-31 13:52:00,60.2,51.0,30.22,NW,318,6.0,16.0,71,0.00,,,0.01,weatherlink.com 1.10,2013-01-31 21:52:00,
2013-01-31 14:07:00,59.1,50.0,30.22,WNW,301,5.0,14.0,72,0.00,,,0.01,weatherlink.com 1.10,2013-01-31 22:07:00,
2013-01-31 14:22:00,58.5,50.0,30.21,NW,304,7.0,13.0,73,0.00,,,0.01,weatherlink.com 1.10,2013-01-31 22:22:00,
2013-01-31 14:37:00,58.0,49.0,30.21,WNW,302,7.0,13.0,72,0.00,,,0.01,weatherlink.com 1.10,2013-01-31 22:37:00,
2013-01-31 14:52:00,57.6,49.0,30.21,WNW,291,8.0,12.0,73,0.00,,,0.01,weatherlink.com 1.10,2013-01-31 22:52:00,
2013-01-31 15:07:00,57.6,49.0,30.21,WNW,294,4.0,11.0,73,0.00,,,0.01,weatherlink.com 1.10,2013-01-31 23:07:00,
2013-01-31 15:22:00,57.6,49.0,30.21,NW,304,8.0,13.0,73,0.00,,,0.01,weatherlink.com 1.10,2013-01-31 23:22:00,
2013-01-31 15:37:00,57.2,49.0,30.21,NW,311,6.0,11.0,74,0.00,,,0.01,weatherlink.com 1.10,2013-01-31 23:37:00,
2013-01-31 15:52:00,57.1,49.0,30.21,WNW,291,5.0,10.0,75,0.00,,,0.01,weatherlink.com 1.10,2013-01-31 23:52:00,
2013-01-31 16:07:00,57.0,49.0,30.21,WNW,299,6.0,8.0,75,0.00,,,0.01,weatherlink.com 1.10,2013-02-01 00:07:00,
2013-01-31 16:22:00,56.3,49.0,30.20,WNW,291,6.0,9.0,76,0.00,,,0.01,weatherlink.com 1.10,2013-02-01 00:22:00,
2013-01-31 16:37:00,55.3,48.0,30.20,WNW,285,4.0,9.0,77,0.00,,,0.01,weatherlink.com 1.10,2013-02-01 00:37:00,
2013-01-31 16:52:00,54.4,47.0,30.20,WNW,293,5.0,8.0,77,0.00,,,0.01,weatherlink.com 1.10,2013-02-01 00:52:00,
2013-01-31 17:07:00,53.3,47.0,30.20,WNW,295,3.0,7.0,78,0.00,,,0.01,weatherlink.com 1.10,2013-02-01 01:07:00,
2013-01-31 17:22:00,51.8,46.0,30.20,NNW,336,0.0,5.0,80,0.00,,,0.01,weatherlink.com 1.10,2013-02-01 01:22:00,
2013-01-31 17:37:00,50.1,45.0,30.20,North,8,0.0,0.0,83,0.00,,,0.01,weatherlink.com 1.10,2013-02-01 01:37:00,
2013-01-31 17:52:00,48.3,44.0,30.20,North,349,0.0,0.0,86,0.00,,,0.01,weatherlink.com 1.10,2013-02-01 01:52:00,
2013-01-31 18:07:00,47.1,44.0,30.20,NE,34,0.0,0.0,88,0.00,,,0.01,weatherlink.com 1.10,2013-02-01 02:07:00,
2013-01-31 18:22:00,46.2,44.0,30.20,NE,47,0.0,0.0,90,0.00,,,0.01,weatherlink.com 1.10,2013-02-01 02:22:00,
2013-01-31 18:38:00,44.6,42.0,30.20,NE,45,0.0,0.0,91,0.00,,,0.01,weatherlink.com 1.10,2013-02-01 02:38:00,
2013-01-31 18:52:00,44.0,42.0,30.21,NE,40,0.0,0.0,92,0.00,,,0.01,weatherlink.com 1.10,2013-02-01 02:52:00,
2013-01-31 19:07:00,43.5,41.0,30.21,ENE,67,0.0,0.0,92,0.00,,,0.01,weatherlink.com 1.10,2013-02-01 03:07:00,
2013-01-31 19:22:00,43.7,42.0,30.21,NE,51,1.0,2.0,94,0.00,,,0.01,weatherlink.com 1.10,2013-02-01 03:22:00,
2013-01-31 19:37:00,42.3,41.0,30.21,NE,51,0.0,1.0,93,0.00,,,0.01,weatherlink.com 1.10,2013-02-01 03:37:00,
2013-01-31 19:52:00,41.3,40.0,30.21,NE,51,0.0,0.0,94,0.00,,,0.01,weatherlink.com 1.10,2013-02-01 03:52:00,
2013-01-31 20:07:00,41.3,40.0,30.20,NE,51,0.0,0.0,95,0.00,,,0.01,weatherlink.com 1.10,2013-02-01 04:07:00,
2013-01-31 20:22:00,41.1,40.0,30.21,NE,51,0.0,0.0,94,0.00,,,0.01,weatherlink.com 1.10,2013-02-01 04:22:00,
2013-01-31 20:37:00,40.6,39.0,30.21,NE,50,0.0,0.0,95,0.00,,,0.01,weatherlink.com 1.10,2013-02-01 04:37:00,
2013-01-31 20:52:00,41.0,40.0,30.21,NE,50,0.0,0.0,96,0.00,,,0.01,weatherlink.com 1.10,2013-02-01 04:52:00,
2013-01-31 21:07:00,39.6,38.0,30.21,NE,51,0.0,0.0,95,0.00,,,0.01,weatherlink.com 1.10,2013-02-01 05:07:00,
2013-01-31 21:22:00,40.4,40.0,30.21,NE,52,0.0,0.0,97,0.00,,,0.01,weatherlink.com 1.10,2013-02-01 05:22:00,
2013-01-31 21:37:00,40.5,40.0,30.21,NE,53,0.0,0.0,97,0.00,,,0.01,weatherlink.com 1.10,2013-02-01 05:37:00,
2013-01-31 21:53:00,40.1,39.0,30.21,NE,53,0.0,0.0,96,0.00,,,0.01,weatherlink.com 1.10,2013-02-01 05:53:00,
2013-01-31 22:08:00,40.4,40.0,30.21,NE,53,0.0,0.0,97,0.00,,,0.01,weatherlink.com 1.10,2013-02-01 06:08:00,
2013-01-31 22:25:00,39.5,39.0,30.21,NE,53,0.0,0.0,96,0.00,,,0.01,weatherlink.com 1.10,2013-02-01 06:25:00,
2013-01-31 22:38:00,38.9,38.0,30.21,NE,53,0.0,0.0,96,0.00,,,0.01,weatherlink.com 1.10,2013-02-01 06:38:00,
2013-01-31 22:53:00,39.2,39.0,30.21,SW,226,0.0,0.0,98,0.00,,,0.01,weatherlink.com 1.10,2013-02-01 06:53:00,
2013-01-31 23:08:00,40.1,40.0,30.21,East,89,0.0,0.0,98,0.00,,,0.01,weatherlink.com 1.10,2013-02-01 07:08:00,
2013-01-31 23:23:00,40.4,40.0,30.21,East,83,0.0,0.0,98,0.00,,,0.01,weatherlink.com 1.10,2013-02-01 07:23:00,
2013-01-31 23:38:00,39.9,39.0,30.21,East,88,0.0,0.0,97,0.00,,,0.01,weatherlink.com 1.10,2013-02-01 07:38:00,
2013-01-31 23:53:00,40.0,39.0,30.21,SSW,201,0.0,0.0,97,0.00,,,0.01,weatherlink.com 1.10,2013-02-01 07:53:00,